{"data":{"norad_id":65423,"epoch":"2026-05-24T23:00:16.193664Z","epoch_age_seconds":81845,"freshness":"FRESH","line1":"1 65423U 25192V   26144.95852076  .00014647  00000+0  48256-3 0  9997","line2":"2 65423  53.1564 237.9235 0000737  74.9645 285.1438 15.31717891 41064","mean_motion":15.31717891,"eccentricity":7.37e-5,"inclination_deg":53.1564,"raan_deg":237.9235,"arg_perigee_deg":74.9645,"mean_anomaly_deg":285.1438,"bstar":0.00048256,"rev_number":4106,"period_min":94.012089854215,"perigee_km":470.18190530073,"apogee_km":471.19142190874,"semimajor_km":6848.8236636047,"source":"CELESTRAK","updated_at":"2026-05-25T13:38:20.803352Z"}}